Le Mars, IA

4:15 AM CDT on June 26, 2017 (GMT -0500)
Le Mars Municipal

Weather History for KLRJ - March, 2013

Change the Weather History Date:

Thursday, March 7, 2013

  Actual Average Record
Temperature  
Mean Temperature 32 °F -  
Max Temperature 44 °F 41 °F 77 °F (2016)
Min Temperature 19 °F 18 °F -6 °F (1989)
Degree Days  
Heating Degree Days 34    
Moisture  
Dew Point 22 °F    
Average Humidity 77    
Maximum Humidity 93    
Minimum Humidity 53    
Precipitation  
Precipitation 0.00 in - - ()
Sea Level Pressure  
Sea Level Pressure 30.19 in    
Wind  
Wind Speed 11 mph (SE)    
Max Wind Speed 20 mph    
Max Gust Speed 24 mph    
Visibility 10 miles    
Events      
Averages and records for this station are not official NWS values.
T = Trace of Precipitation, MM = Missing Value Source: NWS Daily Summary

Daily Weather History Graph

Daily Weather History Graph

Search for Another Location

Airport or City:

Trip Planner

Search our weather history database for the weather conditions in past years. The results will help you decide how hot, cold, wet, or windy it might be!

Date:

Astronomy

Mar. 07, 2013 Rise Set
Actual Time 6:50 AM CST 6:21 PM CST
Civil Twilight 6:21 AM CST 6:50 PM CST
Nautical Twilight 5:49 AM CST 7:22 PM CST
Astronomical Twilight 5:16 AM CST 7:55 PM CST
Moon 3:55 AM CST (3/7) 2:06 PM CST (3/7)
Length of Visible Light 12h 28m
Length of Day
11h 31m
Waning Crescent, 20% of the Moon is Illuminated
Mar 7
Waning Crescent
Mar 11
New
Mar 19
First Quarter
Mar 27
Full
Apr 2
Last Quarter

Hourly Weather History & Observations

Time (CST) Temp. Windchill Dew Point Humidity Pressure Visibility Wind Dir Wind Speed Gust Speed Precip Events Conditions
12:15 AM 21.2 °F 10.9 °F 17.6 °F 86% 30.26 in 10.0 mi ESE 9.2 mph - N/A   Clear
12:35 AM 21.2 °F 10.9 °F 17.6 °F 86% 30.25 in 10.0 mi ESE 9.2 mph - N/A   Clear
12:55 AM 21.2 °F 9.5 °F 17.6 °F 86% 30.25 in 10.0 mi ESE 11.5 mph - N/A   Clear
1:15 AM 21.2 °F 10.9 °F 17.6 °F 86% 30.26 in 10.0 mi ESE 9.2 mph - N/A   Clear
1:35 AM 19.4 °F 10.4 °F 17.6 °F 93% 30.27 in 10.0 mi ESE 6.9 mph - N/A   Clear
1:55 AM 21.2 °F 10.9 °F 17.6 °F 86% 30.27 in 10.0 mi SE 9.2 mph - N/A   Clear
2:15 AM 19.4 °F 9.5 °F 17.6 °F 93% 30.27 in 10.0 mi SE 8.1 mph - N/A   Clear
2:35 AM 19.4 °F 11.5 °F 17.6 °F 93% 30.26 in 10.0 mi ESE 5.8 mph - N/A   Clear
2:55 AM 19.4 °F 9.5 °F 17.6 °F 93% 30.25 in 10.0 mi ESE 8.1 mph - N/A   Clear
3:15 AM 19.4 °F 8.6 °F 17.6 °F 93% 30.25 in 10.0 mi SE 9.2 mph - N/A   Clear
3:35 AM 19.4 °F 9.5 °F 17.6 °F 93% 30.25 in 10.0 mi SE 8.1 mph - N/A   Clear
3:55 AM 19.4 °F 9.5 °F 17.6 °F 93% 30.23 in 10.0 mi SE 8.1 mph - N/A   Clear
4:15 AM 19.4 °F 7.9 °F 17.6 °F 93% 30.23 in 10.0 mi SE 10.4 mph - N/A   Clear
4:35 AM 19.4 °F 8.6 °F 17.6 °F 93% 30.23 in 10.0 mi SE 9.2 mph - N/A   Clear
4:55 AM 19.4 °F 7.9 °F 17.6 °F 93% 30.23 in 10.0 mi SE 10.4 mph - N/A   Clear
5:15 AM 19.4 °F 7.9 °F 17.6 °F 93% 30.24 in 10.0 mi SE 10.4 mph - N/A   Clear
5:35 AM 19.4 °F 7.9 °F 15.8 °F 86% 30.24 in 10.0 mi SE 10.4 mph - N/A   Clear
5:55 AM 19.4 °F 7.9 °F 15.8 °F 86% 30.23 in 10.0 mi ESE 10.4 mph 16.1 mph N/A   Clear
6:15 AM 19.4 °F 7.2 °F 15.8 °F 86% 30.24 in 10.0 mi SE 11.5 mph - N/A   Clear
6:35 AM 19.4 °F 7.9 °F 15.8 °F 86% 30.24 in 10.0 mi ESE 10.4 mph - N/A   Clear
6:55 AM 19.4 °F 8.6 °F 15.8 °F 86% 30.25 in 10.0 mi SE 9.2 mph - N/A   Clear
7:15 AM 19.4 °F 7.9 °F 15.8 °F 86% 30.25 in 10.0 mi SE 10.4 mph - N/A   Clear
7:35 AM 19.4 °F 7.9 °F 15.8 °F 86% 30.24 in 10.0 mi SE 10.4 mph - N/A   Clear
7:55 AM 19.4 °F 7.9 °F 15.8 °F 86% 30.25 in 10.0 mi SE 10.4 mph - N/A   Clear
8:15 AM 21.2 °F 10.1 °F 17.6 °F 86% 30.24 in 10.0 mi SE 10.4 mph - N/A   Clear
8:35 AM 21.2 °F 8.3 °F 17.6 °F 86% 30.23 in 10.0 mi SSE 13.8 mph 19.6 mph N/A   Clear
8:55 AM 24.8 °F 11.9 °F 19.4 °F 80% 30.22 in 10.0 mi SSE 16.1 mph 21.9 mph N/A   Clear
9:15 AM 24.8 °F 12.9 °F 19.4 °F 80% 30.22 in 10.0 mi SSE 13.8 mph - N/A   Clear
9:35 AM 26.6 °F 13.1 °F 19.4 °F 74% 30.20 in 10.0 mi SSE 19.6 mph - N/A   Clear
9:55 AM 26.6 °F 14.3 °F 19.4 °F 74% 30.20 in 10.0 mi SSE 16.1 mph 20.7 mph N/A   Clear
10:15 AM 28.4 °F 16.6 °F 21.2 °F 74% 30.19 in 10.0 mi SSE 16.1 mph 21.9 mph N/A   Clear
10:35 AM 30.2 °F 17.8 °F 21.2 °F 69% 30.18 in 10.0 mi SSE 19.6 mph 24.2 mph N/A   Clear
10:55 AM 30.2 °F 18.5 °F 21.2 °F 69% 30.18 in 10.0 mi SSE 17.3 mph 23.0 mph N/A   Clear
11:15 AM 32.0 °F 20.8 °F 21.2 °F 64% 30.19 in 10.0 mi SSE 17.3 mph 20.7 mph N/A   Clear
11:35 AM 33.8 °F 23.9 °F 23.0 °F 65% 30.18 in 10.0 mi SSE 15.0 mph 18.4 mph N/A   Clear
11:55 AM 33.8 °F 24.3 °F 23.0 °F 65% 30.17 in 10.0 mi SSE 13.8 mph - N/A   Clear
12:15 PM 35.6 °F 26.2 °F 24.8 °F 65% 30.16 in 10.0 mi SSE 15.0 mph 21.9 mph N/A   Clear
12:35 PM 37.4 °F 29.8 °F 24.8 °F 60% 30.16 in 10.0 mi SSE 11.5 mph 19.6 mph N/A   Clear
12:55 PM 37.4 °F 29.3 °F 26.6 °F 65% 30.16 in 10.0 mi SSE 12.7 mph 17.3 mph N/A   Clear
1:15 PM 39.2 °F 31.2 °F 26.6 °F 61% 30.15 in 10.0 mi SSE 13.8 mph 19.6 mph N/A   Clear
1:35 PM 39.2 °F 30.2 °F 26.6 °F 61% 30.13 in 10.0 mi SSE 17.3 mph 20.7 mph N/A   Clear
1:55 PM 39.2 °F 29.8 °F 26.6 °F 61% 30.12 in 10.0 mi SSE 18.4 mph - N/A   Clear
2:15 PM 41.0 °F 33.5 °F 26.6 °F 57% 30.11 in 10.0 mi SSE 13.8 mph - N/A   Clear
2:35 PM 42.8 °F 35.1 °F 28.4 °F 57% 30.11 in 10.0 mi SSE 16.1 mph 19.6 mph N/A   Clear
2:55 PM 42.8 °F 35.8 °F 26.6 °F 53% 30.12 in 10.0 mi SSE 13.8 mph 18.4 mph N/A   Clear
3:15 PM 42.8 °F 36.2 °F 28.4 °F 57% 30.11 in 10.0 mi SSE 12.7 mph 21.9 mph N/A   Clear
3:35 PM 42.8 °F 36.6 °F 28.4 °F 57% 30.11 in 10.0 mi SSE 11.5 mph 19.6 mph N/A   Clear
3:55 PM 44.6 °F 39.2 °F 28.4 °F 53% 30.11 in 10.0 mi SSE 10.4 mph 17.3 mph N/A   Clear
4:15 PM 44.6 °F 38.8 °F 28.4 °F 53% 30.11 in 10.0 mi SSE 11.5 mph 18.4 mph N/A   Clear
4:35 PM 42.8 °F 37.0 °F 28.4 °F 57% 30.11 in 10.0 mi SSE 10.4 mph 19.6 mph N/A   Clear
4:55 PM 42.8 °F 36.6 °F 28.4 °F 57% 30.11 in 10.0 mi SSE 11.5 mph - N/A   Clear
5:15 PM 42.8 °F 36.6 °F 28.4 °F 57% 30.11 in 10.0 mi SSE 11.5 mph 17.3 mph N/A   Clear
5:35 PM 39.2 °F 35.0 °F 28.4 °F 65% 30.12 in 10.0 mi SE 5.8 mph - N/A   Clear
5:55 PM 37.4 °F 32.1 °F 28.4 °F 70% 30.12 in 10.0 mi SE 6.9 mph - N/A   Clear
7:35 PM 33.8 °F 24.3 °F 28.4 °F 81% 30.14 in 10.0 mi SE 13.8 mph 17.3 mph N/A   Clear
7:55 PM 33.8 °F 24.3 °F 26.6 °F 75% 30.14 in 10.0 mi SE 13.8 mph 20.7 mph N/A   Clear
8:15 PM 32.0 °F 22.1 °F 26.6 °F 80% 30.14 in 10.0 mi SE 13.8 mph 18.4 mph N/A   Clear
8:35 PM 32.0 °F 24.8 °F 26.6 °F 80% 30.15 in 10.0 mi SE 8.1 mph 17.3 mph N/A   Clear
8:55 PM 32.0 °F 24.8 °F 26.6 °F 80% 30.15 in 10.0 mi SE 8.1 mph - N/A   Clear
9:15 PM 32.0 °F 24.2 °F 26.6 °F 80% 30.16 in 10.0 mi SSE 9.2 mph - N/A   Clear
9:35 PM 32.0 °F 24.8 °F 26.6 °F 80% 30.16 in 10.0 mi SSE 8.1 mph - N/A   Clear
9:55 PM 32.0 °F 24.2 °F 26.6 °F 80% 30.17 in 10.0 mi SSE 9.2 mph - N/A   Clear
10:15 PM 30.2 °F 23.4 °F 26.6 °F 86% 30.18 in 10.0 mi SE 6.9 mph - N/A   Clear
10:35 PM 30.2 °F 25.4 °F 26.6 °F 86% 30.18 in 10.0 mi SE 4.6 mph - N/A   Clear
10:55 PM 30.2 °F 26.7 °F 26.6 °F 86% 30.18 in 10.0 mi SSE 3.5 mph - N/A   Clear
11:15 PM 30.2 °F 24.3 °F 26.6 °F 86% 30.19 in 10.0 mi SSE 5.8 mph - N/A   Clear
11:35 PM 30.2 °F 24.3 °F 26.6 °F 86% 30.19 in 10.0 mi SSE 5.8 mph - N/A   Clear
11:55 PM 30.2 °F 23.4 °F 26.6 °F 86% 30.19 in 10.0 mi SSE 6.9 mph - N/A   Clear